JAL2016 RJCC-RJOO

Flight info

Callsign JAL2016
Flight time N/A
Altitude 38000
Route DALBI Y120 TAPPI Y12 ARIKA Y14 GOLDO Y381 KMC Y384 ROKKO
Aircraft B738/M-SDGIJ1LRWY/SB1

Departure

Time 2026-05-04 08:57
Airport New Chitose Airport (RJCC)

Arrival

Time N/A
Airport Osaka Itami International Airport (RJOO)
Time Latitude Longitude Altitude Speed Heading
2026-05-04 08:42 42.79028 141.67743 79 ft 0 kts 172°
2026-05-04 08:48 42.79034 141.67743 79 ft 2 kts 172°
2026-05-04 08:49 42.79049 141.67740 79 ft 2 kts 173°
2026-05-04 08:50 42.79121 141.67694 78 ft 2 kts 76°
2026-05-04 08:50 42.79118 141.67677 77 ft 0 kts 84°
2026-05-04 08:51 42.79118 141.67676 77 ft 0 kts 85°
2026-05-04 08:52 42.79118 141.67680 77 ft 3 kts 84°
2026-05-04 08:52 42.79125 141.67752 78 ft 12 kts 82°
2026-05-04 08:53 42.79133 141.67899 79 ft 15 kts 93°
2026-05-04 08:54 42.78809 141.68625 82 ft 12 kts 83°
2026-05-04 08:55 42.78820 141.68742 79 ft 12 kts 83°
2026-05-04 08:55 42.78785 141.68820 77 ft 10 kts 169°
2026-05-04 08:55 42.78737 141.68829 77 ft 7 kts 173°
2026-05-04 08:55 42.78545 141.68863 77 ft 60 kts 173°
2026-05-04 08:57 42.70566 141.70371 2661 ft 224 kts 176°
2026-05-04 09:01 42.51384 141.57371 11826 ft 301 kts 242°
2026-05-04 09:01 42.50364 141.54835 12245 ft 316 kts 242°
2026-05-04 09:01 42.49293 141.52176 12605 ft 333 kts 242°
2026-05-04 09:01 42.48160 141.49365 13111 ft 345 kts 242°
2026-05-04 09:02 42.47008 141.46512 14044 ft 345 kts 242°
2026-05-04 09:02 42.45857 141.43661 14772 ft 350 kts 242°
2026-05-04 09:02 42.44682 141.40753 15556 ft 355 kts 242°
2026-05-04 09:02 42.43498 141.37826 16229 ft 361 kts 242°
2026-05-04 09:03 42.42281 141.34819 16971 ft 366 kts 241°
2026-05-04 09:03 42.41056 141.31801 17733 ft 370 kts 241°
2026-05-04 09:03 42.39807 141.28723 18339 ft 378 kts 241°
2026-05-04 09:03 42.38550 141.25630 19074 ft 380 kts 241°
2026-05-04 09:04 42.37266 141.22473 19784 ft 383 kts 241°
2026-05-04 09:04 42.35983 141.19318 20381 ft 388 kts 241°
2026-05-04 09:04 42.34680 141.16122 21045 ft 391 kts 240°
2026-05-04 09:04 42.33369 141.12909 21696 ft 393 kts 240°
2026-05-04 09:05 42.32044 141.09670 22248 ft 398 kts 240°
2026-05-04 09:05 42.30691 141.06363 22823 ft 402 kts 240°
2026-05-04 09:05 42.29358 141.03105 23533 ft 401 kts 240°
2026-05-04 09:05 42.27967 140.99707 23862 ft 410 kts 240°
2026-05-04 09:06 42.26615 140.96411 24689 ft 405 kts 240°
2026-05-04 09:07 42.17623 140.74561 29984 ft 359 kts 238°
2026-05-04 09:08 42.16395 140.71611 30222 ft 364 kts 237°
2026-05-04 09:08 42.15149 140.68636 30534 ft 366 kts 237°
2026-05-04 09:08 42.13910 140.65675 30991 ft 364 kts 237°
2026-05-04 09:08 42.12681 140.62706 31542 ft 360 kts 238°
2026-05-04 09:09 42.11454 140.59772 32039 ft 355 kts 236°
2026-05-04 09:09 42.10128 140.57007 32376 ft 354 kts 232°
2026-05-04 09:09 42.08420 140.54611 32537 ft 359 kts 223°
2026-05-04 09:09 42.06467 140.52542 32930 ft 357 kts 219°
2026-05-04 09:10 42.04445 140.50661 33261 ft 360 kts 214°
2026-05-04 09:10 42.02101 140.49292 33607 ft 366 kts 204°
2026-05-04 09:10 41.99656 140.48332 33992 ft 365 kts 202°
2026-05-04 09:10 41.97201 140.47433 34272 ft 366 kts 202°
2026-05-04 09:11 41.94732 140.46521 34413 ft 370 kts 203°
2026-05-04 09:11 41.92251 140.45578 34680 ft 371 kts 203°
2026-05-04 09:11 41.89758 140.44630 35033 ft 369 kts 202°
2026-05-04 09:11 41.87326 140.43723 35507 ft 365 kts 202°
2026-05-04 09:12 41.84865 140.42815 35757 ft 366 kts 202°
2026-05-04 09:12 41.82382 140.41890 35901 ft 370 kts 203°
2026-05-04 09:14 41.64947 140.35416 37416 ft 375 kts 202°
2026-05-04 09:14 41.59876 140.33539 37421 ft 377 kts 201°
2026-05-04 09:15 41.54848 140.31703 37452 ft 377 kts 202°
2026-05-04 09:15 41.49802 140.29834 37453 ft 374 kts 201°
2026-05-04 09:17 41.27124 140.21516 37470 ft 374 kts 202°
2026-05-04 09:18 41.22105 140.19690 37481 ft 374 kts 202°
2026-05-04 09:18 41.17067 140.17847 37481 ft 377 kts 202°
2026-05-04 09:19 41.12022 140.16038 37487 ft 377 kts 201°
2026-05-04 09:19 41.06954 140.14276 37490 ft 378 kts 202°
2026-05-04 09:20 41.01820 140.12506 37493 ft 379 kts 202°
2026-05-04 09:20 40.96767 140.10757 37503 ft 375 kts 202°
2026-05-04 09:21 40.91699 140.08984 37524 ft 377 kts 203°
2026-05-04 09:21 40.86634 140.07245 37508 ft 373 kts 203°
2026-05-04 09:22 40.81605 140.05543 37503 ft 374 kts 203°
2026-05-04 09:22 40.76580 140.03775 37519 ft 374 kts 203°
2026-05-04 09:23 40.71563 140.02069 37523 ft 370 kts 203°
2026-05-04 09:23 40.66551 140.00351 37520 ft 375 kts 202°
2026-05-04 09:25 40.46479 139.93514 37554 ft 367 kts 205°
2026-05-04 09:26 40.41826 139.91036 37542 ft 359 kts 213°
2026-05-04 09:26 40.37351 139.88034 37575 ft 360 kts 214°
2026-05-04 09:27 40.32917 139.85071 37584 ft 356 kts 213°
2026-05-04 09:27 40.28474 139.82181 37577 ft 355 kts 215°
2026-05-04 09:28 40.24103 139.79178 37581 ft 355 kts 215°
2026-05-04 09:28 40.19705 139.76205 37593 ft 356 kts 214°
2026-05-04 09:29 40.15284 139.73261 37613 ft 355 kts 214°
2026-05-04 09:29 40.10897 139.70323 37604 ft 350 kts 213°
2026-05-04 09:30 40.06522 139.67369 37613 ft 356 kts 213°
2026-05-04 09:30 40.02084 139.64444 37623 ft 353 kts 213°
2026-05-04 09:31 39.97725 139.61624 37623 ft 349 kts 213°
2026-05-04 09:31 39.93351 139.58748 37633 ft 354 kts 214°
2026-05-04 09:32 39.88900 139.55862 37643 ft 353 kts 214°
2026-05-04 09:34 39.71478 139.44592 37672 ft 351 kts 213°
2026-05-04 09:34 39.67125 139.41725 37670 ft 349 kts 214°
2026-05-04 09:35 39.62782 139.38922 37692 ft 349 kts 214°
2026-05-04 09:35 39.58435 139.36142 37685 ft 347 kts 214°
2026-05-04 09:37 39.41108 139.25140 37694 ft 347 kts 212°
2026-05-04 09:38 39.36746 139.22397 37693 ft 347 kts 214°
2026-05-04 09:38 39.32423 139.19650 37715 ft 343 kts 214°
2026-05-04 09:39 39.28161 139.16888 37706 ft 342 kts 214°
2026-05-04 09:39 39.23908 139.14087 37725 ft 345 kts 214°
2026-05-04 09:40 39.19600 139.11394 37730 ft 340 kts 212°
2026-05-04 09:40 39.15374 139.08797 37760 ft 338 kts 214°
2026-05-04 09:42 38.98397 138.98099 37723 ft 336 kts 214°
2026-05-04 09:43 38.94260 138.95361 37758 ft 336 kts 214°
2026-05-04 09:43 38.90000 138.92728 37749 ft 337 kts 215°
2026-05-04 09:44 38.85806 138.90031 37756 ft 337 kts 213°
2026-05-04 09:46 38.68999 138.79517 37789 ft 339 kts 215°
2026-05-04 09:46 38.64807 138.76930 37800 ft 333 kts 215°
2026-05-04 09:47 38.60598 138.74396 37775 ft 337 kts 214°
2026-05-04 09:49 38.43713 138.63863 37824 ft 335 kts 214°
2026-05-04 09:51 38.28997 138.54776 37814 ft 334 kts 214°
2026-05-04 09:51 38.24814 138.52162 37823 ft 338 kts 215°
2026-05-04 09:52 38.20585 138.49617 37832 ft 338 kts 215°
2026-05-04 09:52 38.16338 138.46995 37828 ft 337 kts 215°
2026-05-04 09:53 38.12132 138.44408 37834 ft 338 kts 214°
2026-05-04 09:53 38.07983 138.41740 37834 ft 328 kts 220°
2026-05-04 09:54 38.04404 138.38211 37833 ft 325 kts 228°
2026-05-04 09:54 38.01140 138.34230 37839 ft 326 kts 228°
2026-05-04 09:55 37.97868 138.30270 37844 ft 326 kts 229°
2026-05-04 09:55 37.94667 138.26251 37848 ft 326 kts 229°
2026-05-04 09:56 37.91430 138.22273 37859 ft 326 kts 229°
2026-05-04 09:56 37.88176 138.18259 37857 ft 326 kts 229°
2026-05-04 09:57 37.84936 138.14255 37862 ft 326 kts 228°
2026-05-04 09:57 37.81650 138.10251 37869 ft 329 kts 228°
2026-05-04 09:58 37.78395 138.06245 37870 ft 327 kts 227°
2026-05-04 09:58 37.75185 138.02223 37882 ft 327 kts 229°
2026-05-04 10:00 37.62053 137.86183 37902 ft 325 kts 229°
2026-05-04 10:04 37.39280 137.58583 37916 ft 325 kts 227°
2026-05-04 10:04 37.36012 137.54683 37925 ft 323 kts 229°
2026-05-04 10:05 37.32770 137.50716 37930 ft 324 kts 228°
2026-05-04 10:05 37.29506 137.46805 37926 ft 325 kts 229°
2026-05-04 10:06 37.26234 137.42870 37873 ft 324 kts 230°
2026-05-04 10:06 37.22990 137.38972 37934 ft 326 kts 230°
2026-05-04 10:08 37.11586 137.25279 37947 ft 324 kts 229°
2026-05-04 10:08 37.08313 137.21376 37942 ft 327 kts 228°
2026-05-04 10:09 37.05045 137.17473 37950 ft 323 kts 228°
2026-05-04 10:09 37.01805 137.13545 37957 ft 326 kts 229°
2026-05-04 10:10 36.98477 137.09627 37958 ft 327 kts 229°
2026-05-04 10:10 36.95200 137.05740 37969 ft 323 kts 230°
2026-05-04 10:11 36.91940 137.01851 37961 ft 324 kts 227°
2026-05-04 10:11 36.88685 136.98004 37974 ft 325 kts 229°
2026-05-04 10:12 36.85430 136.94157 37974 ft 320 kts 230°
2026-05-04 10:12 36.82180 136.90233 37970 ft 326 kts 229°
2026-05-04 10:13 36.78901 136.86379 37979 ft 325 kts 228°
2026-05-04 10:13 36.75620 136.82524 37981 ft 324 kts 229°
2026-05-04 10:14 36.72326 136.78699 37975 ft 324 kts 228°
2026-05-04 10:16 36.59188 136.63260 37975 ft 324 kts 230°
2026-05-04 10:16 36.55899 136.59392 37980 ft 325 kts 230°
2026-05-04 10:17 36.52588 136.55562 37971 ft 324 kts 229°
2026-05-04 10:19 36.39420 136.40266 37967 ft 327 kts 227°
2026-05-04 10:19 36.35689 136.36928 37978 ft 330 kts 224°
2026-05-04 10:20 36.31945 136.33623 37972 ft 331 kts 224°
2026-05-04 10:20 36.28203 136.30347 37971 ft 329 kts 223°
2026-05-04 10:21 36.24469 136.27069 37969 ft 329 kts 223°
2026-05-04 10:21 36.20737 136.23817 37969 ft 331 kts 223°
2026-05-04 10:22 36.15116 136.18915 37972 ft 329 kts 224°
2026-05-04 10:23 36.11382 136.15611 37975 ft 329 kts 224°
2026-05-04 10:25 35.96392 136.02585 37970 ft 329 kts 222°
2026-05-04 10:25 35.92649 135.99339 37966 ft 328 kts 224°
2026-05-04 10:26 35.88898 135.96059 37931 ft 331 kts 224°
2026-05-04 10:26 35.87030 135.94476 37722 ft 324 kts 223°
2026-05-04 10:26 35.85454 135.93133 37421 ft 317 kts 224°
2026-05-04 10:26 35.83689 135.91611 36986 ft 316 kts 224°
2026-05-04 10:27 35.81923 135.90083 36430 ft 316 kts 224°
2026-05-04 10:27 35.80142 135.88550 35825 ft 315 kts 223°
2026-05-04 10:27 35.78354 135.87013 35185 ft 315 kts 223°
2026-05-04 10:27 35.76566 135.85471 34562 ft 316 kts 224°
2026-05-04 10:28 35.74769 135.83905 33854 ft 318 kts 223°
2026-05-04 10:28 35.72967 135.82342 33069 ft 321 kts 223°